Tracking 30743 objects as of 20-Jun-2025
HD Live streaming from Space Station
objects crossing your sky now

N-1 R/B

Track N-1 R/B now!
10-day predictions


NORAD ID: 10675
Int'l Code: 1978-018B
Perigee: 980.0 km
Apogee: 1,216.7 km
Inclination: 69.4 °
Period: 107.1 minutes
Semi major axis: 7469 km
RCS: 1.3828 m2 (large)
Launch date: February 16, 1978
Source: Japan (JPN)
Launch site: TANEGASHIMA SPACE CENTER (TNSTA)

Note: This is a ROCKET BODY
Your satellite tracking list
Your tracking list is empty




NASA's NSSDC Master Catalog

Two Line Element Set (TLE):
1 10675U 78018B   25171.40288005 -.00000008  00000-0  65518-4 0  9994
2 10675  69.3578 211.0708 0158456 122.8187 250.8576 13.44861814323377
Source of the keplerian elements: AFSPC